[[{"header":{"parameterUnit":"m.s-1","parameterCategory":1,"la1":30.2992,"la2":30.254,"lo1":-89.0895,"lo2":-89.0443,"dy":0.0025,"dx":0.0025,"nx":19,"ny":19,"refTime":"2026-03-11T21:00:00:Z","depth":0,"parameterNumber":2,"parameterNumberName":"U-component_of_WINDS"},"data":[0,0,0,-2.0133,-2.0134,-2.0192,-2.0192,-2.0263,-2.0264,0,0,0,0,0,0,0,0,0,0,0,-2.0114,-2.0114,-2.0133,-2.0134,-2.0192,-2.0192,-2.0263,-2.0264,0,0,0,0,0,0,0,0,0,0,0,-2.0113,-2.0114,-2.0114,-2.0134,-2.0191,-2.0192,-2.0263,-2.022,0,0,0,0,0,0,0,0,0,0,-2.0165,-2.0145,-2.0114,-2.0114,-2.0135,-2.0191,-2.0192,-2.0218,-2.0223,-2.0236,0,-2.0246,0,-2.0256,-2.0268,-2.0269,0,0,0,-2.0136,-2.0141,-2.0159,-2.0115,-2.0135,-2.0191,-2.0166,-2.0221,-2.0226,-2.0242,-2.0247,-2.025,-2.0257,-2.0269,-2.0269,-2.0335,-2.0335,0,0,-2.0133,-2.0123,-2.0155,-2.0162,-2.0152,-2.0164,-2.0168,-2.0224,-2.0229,-2.0247,-2.0252,-2.0258,-2.0269,-2.027,-2.0335,-2.0335,0,0,0,-2.0122,-2.0121,-2.0137,-2.0159,-2.0169,-2.0166,-2.017,-2.0227,-2.0233,-2.0252,-2.0259,-2.027,-2.027,-2.0335,-2.0335,-2.0336,0,0,0,-2.0121,-2.0115,-2.0135,-2.013,-2.0168,-2.0199,-2.0171,-2.0229,-2.0236,-2.0259,-2.027,-2.0271,-2.0335,-2.0335,-2.0335,-2.0337,0,0,0,-2.0111,-2.0114,-2.0121,-2.0129,-2.0154,-2.0198,-2.0207,-2.0231,-2.024,-2.0269,-2.0271,-2.0334,-2.0335,-2.0335,-2.0336,-2.0351,0,0,0,-2.0097,-2.0121,-2.0121,-2.0151,-2.0153,-2.0198,-2.0207,-2.0241,-2.0266,-2.027,-2.0335,-2.0335,-2.0334,-2.0336,-2.035,-2.036,-2.0363,0,0,-2.0122,-2.0124,-2.0143,-2.0144,-2.0186,-2.019,-2.0233,-2.0266,-2.0278,-2.0316,-2.0317,-2.0335,-2.0336,-2.0351,-2.0389,-2.0392,0,0,0,-2.0147,-2.016,-2.0173,-2.0196,-2.0221,-2.0243,-2.027,-2.0282,-2.0314,-2.0295,-2.0346,-2.0346,-2.0355,-2.036,-2.0363,-2.037,-2.0337,-2.0337,-2.0337,-2.0167,-2.0181,-2.0212,-2.0233,-2.0256,-2.0283,-2.0303,-2.0324,-2.0332,-2.0344,-2.0354,-2.0376,-2.0381,-2.0383,-2.0391,-2.0362,-2.0362,-2.0362,-2.0362,-2.0204,-2.0224,-2.0234,-2.0267,-2.0283,-2.0311,-2.0339,-2.0344,-2.0373,-2.0369,-2.0377,-2.037,-2.0386,-2.0393,-2.0362,-2.0362,-2.0362,-2.0362,-2.0362,-2.0217,-2.0229,-2.0243,-2.0278,-2.0303,-2.0325,-2.0352,-2.0365,-2.0378,-2.0387,-2.0399,-2.0399,-2.0399,-2.0392,-2.0392,-2.0392,-2.0392,-2.0392,-2.0392,-2.0225,-2.0241,-2.0262,-2.0291,-2.0307,-2.0331,-2.0359,-2.0376,-2.0398,-2.0406,-2.0406,-2.0413,-2.0385,-2.0377,-2.0393,-2.0393,-2.0393,-2.0393,-2.0393,-2.0253,-2.0249,-2.0281,-2.0297,-2.0333,-2.0357,-2.0374,-2.0408,-2.0424,-2.0437,-2.0442,-2.042,-2.0423,-2.0421,-2.0414,-2.044,-2.044,-2.044,-2.044,-2.0263,-2.0267,-2.0302,-2.0327,-2.0354,-2.0373,-2.0409,-2.0432,-2.0456,-2.0467,-2.0466,-2.0459,-2.0456,-2.0461,-2.0458,-2.0452,-2.0486,-2.0486,-2.0486,-2.0281,-2.0288,-2.0315,-2.0337,-2.0366,-2.0391,-2.0425,-2.0455,-2.0481,-2.0488,-2.0476,-2.0474,-2.0462,-2.0458,-2.0463,-2.0459,-2.0448,0,0]},{"header":{"parameterUnit":"m.s-1","parameterCategory":1,"la1":30.2992,"la2":30.254,"lo1":-89.0895,"lo2":-89.0443,"dy":0.0025,"dx":0.0025,"nx":19,"ny":19,"refTime":"2026-03-11T21:00:00:Z","depth":0,"parameterNumber":3,"parameterNumberName":"V-component_of_WINDS"},"data":[0,0,0,1.9154,1.9156,1.924,1.924,1.9343,1.9344,0,0,0,0,0,0,0,0,0,0,0,1.9127,1.9127,1.9154,1.9156,1.924,1.924,1.9343,1.9344,0,0,0,0,0,0,0,0,0,0,0,1.9127,1.9127,1.9128,1.9157,1.924,1.9241,1.9342,1.9281,0,0,0,0,0,0,0,0,0,0,1.92,1.9172,1.9127,1.9128,1.9157,1.924,1.9241,1.9278,1.9285,1.9303,0,1.9318,0,1.9333,1.935,1.9351,0,0,0,1.9158,1.9166,1.9192,1.9128,1.9158,1.924,1.9203,1.9282,1.9289,1.9312,1.932,1.9324,1.9334,1.9351,1.9351,1.9449,1.945,0,0,1.9154,1.914,1.9186,1.9196,1.9183,1.92,1.9205,1.9286,1.9294,1.932,1.9326,1.9336,1.9352,1.9352,1.9449,1.9449,0,0,0,1.9139,1.9137,1.916,1.9192,1.9208,1.9203,1.9209,1.9291,1.9299,1.9327,1.9337,1.9352,1.9353,1.9449,1.9449,1.9454,0,0,0,1.9136,1.9129,1.9158,1.9151,1.9206,1.925,1.9211,1.9294,1.9303,1.9337,1.9352,1.9354,1.9448,1.9449,1.9453,1.9458,0,0,0,1.9122,1.9127,1.9138,1.915,1.9186,1.9249,1.9263,1.9296,1.9309,1.9351,1.9355,1.9448,1.9449,1.9452,1.9457,1.948,0,0,0,1.9103,1.9141,1.9138,1.9184,1.9185,1.9252,1.9262,1.9313,1.9349,1.9353,1.9448,1.9449,1.9452,1.9456,1.9479,1.9497,1.9503,0,0,1.9144,1.9146,1.9174,1.9173,1.9238,1.924,1.9305,1.9351,1.9367,1.9421,1.9423,1.9453,1.9457,1.948,1.9543,1.9548,0,0,0,1.9182,1.9202,1.9222,1.9256,1.9292,1.9323,1.936,1.9377,1.9423,1.9392,1.9469,1.9471,1.9485,1.9494,1.9498,1.9511,1.9453,1.9453,1.9453,1.922,1.9239,1.9287,1.9315,1.9348,1.9386,1.9414,1.9443,1.9452,1.947,1.9486,1.9522,1.9532,1.9535,1.9548,1.9497,1.9497,1.9497,1.9497,1.9281,1.9312,1.9324,1.9374,1.9393,1.9436,1.9474,1.9479,1.9521,1.9512,1.9525,1.9512,1.954,1.9552,1.9498,1.9498,1.9498,1.9498,1.9498,1.9308,1.9326,1.9346,1.9396,1.9433,1.9461,1.9501,1.9517,1.9533,1.9546,1.9564,1.9564,1.9566,1.9554,1.9554,1.9554,1.9554,1.9554,1.9554,1.9327,1.935,1.9382,1.9423,1.9446,1.948,1.9518,1.9542,1.9572,1.9581,1.9581,1.9588,1.954,1.9527,1.9556,1.9556,1.9556,1.9555,1.9555,1.9381,1.9372,1.9421,1.9445,1.9494,1.9529,1.955,1.9596,1.9618,1.9638,1.9642,1.9604,1.9607,1.9604,1.9593,1.9638,1.9638,1.9638,1.9638,1.9403,1.9407,1.946,1.9497,1.9535,1.9559,1.9613,1.9643,1.9673,1.9687,1.9683,1.9671,1.9667,1.9672,1.9668,1.9658,1.9719,1.9719,1.9719,1.9438,1.9445,1.9489,1.9517,1.9557,1.9591,1.9643,1.9684,1.9716,1.9722,1.9699,1.9696,1.9676,1.9669,1.9674,1.9666,1.9649,0,0]}]]